{"data":{"norad_id":62645,"epoch":"2026-05-25T04:14:34.178208Z","epoch_age_seconds":66880,"freshness":"FRESH","line1":"1 62645U 25009AN  26145.17678447  .00010221  00000+0  36835-3 0  9994","line2":"2 62645  97.4008 227.3117 0002950  53.3758 306.7753 15.28738889 75409","mean_motion":15.28738889,"eccentricity":0.000295,"inclination_deg":97.4008,"raan_deg":227.3117,"arg_perigee_deg":53.3758,"mean_anomaly_deg":306.7753,"bstar":0.00036835,"rev_number":7540,"period_min":94.195288048304,"perigee_km":477.55813095794,"apogee_km":481.60418467105,"semimajor_km":6857.7181578145,"source":"CELESTRAK","updated_at":"2026-05-25T13:38:13.339282Z"}}